Date String (YYYY-MM-DD hh:mm:ss) UTC,Instrument flags,absolute air pressure of the measurement (hPa),sample flow rate (lpm),inlet stack bypass flow (lpm),air temperature of the measurement (°C),ambient temperature measured by the external sensor (°C),aerosol sample conditioner tube jacket temperature (°C),OPC LED temperature (°C),internal box temperature (°C),relative humidity of the measurement (%),span deviation,mass concentration of particles derived from Lorenz-Mie calculation of OPC scattering (μg/m³),mass concentration of particles derived from Lorenz-Mie calculation of OPC scattering (μg/m³),mass concentration of particles derived from Lorenz-Mie calculation of OPC scattering (μg/m³)
DateTimeUTC,F1_M11,P_M11,Q1_M11,Q2_M11,T1_M11,T2_M11,T3_M11,T4_M11,T5_M11,U1_M11,ZSPAN_M11,X2_M11,X0_M11,X1_M11
2024-05-12 11:00:00,SystemResetWarning,0824.2,5.00,000.00,025.8,025.3,000.0,034.0,027.6,024.2,0000.0,0004.96,0013.82,0003.92
2024-05-12 11:01:00,SystemResetWarning,0824.2,5.00,000.00,025.8,025.3,000.0,034.0,027.6,024.1,0000.0,0005.03,0013.95,0003.95
2024-05-12 11:02:00,SystemResetWarning,0824.2,5.00,000.00,025.8,025.3,000.0,034.0,027.6,024.0,0000.0,0005.10,0014.06,0003.98
2024-05-12 11:03:00,SystemResetWarning,0824.1,5.01,000.00,025.9,025.3,000.0,034.0,027.6,023.9,0000.0,0005.09,0013.94,0003.99
2024-05-12 11:04:00,SystemResetWarning,0824.0,4.98,000.00,025.8,024.7,000.0,034.0,027.2,023.9,0000.0,0005.06,0013.12,0004.02
2024-05-12 11:05:00,SystemResetWarning,0824.0,5.00,000.00,025.4,022.3,000.0,034.1,026.0,024.5,0000.0,0005.07,0012.84,0004.03
2024-05-12 11:06:00,SystemResetWarning,0823.9,5.01,000.00,025.0,021.7,000.0,034.0,025.5,024.9,0000.0,0005.09,0012.97,0004.04
2024-05-12 11:07:00,SystemResetWarning,0824.0,5.00,000.00,024.8,022.0,000.0,033.9,025.6,025.2,0000.0,0005.14,0012.92,0004.08
2024-05-12 11:08:00,SystemResetWarning,0824.0,5.00,000.00,024.8,022.4,000.0,033.7,025.9,025.5,0000.0,0005.12,0012.74,0004.10
2024-05-12 11:09:00,SystemResetWarning,0824.0,4.99,000.00,024.8,022.8,000.0,033.6,026.1,025.8,0000.0,0005.13,0013.21,0004.14
2024-05-12 11:10:00,SystemResetWarning,0824.0,5.00,000.00,024.8,023.1,000.0,033.5,026.3,025.6,0000.0,0005.16,0013.34,0004.20
2024-05-12 11:11:00,SystemResetWarning,0824.0,4.99,000.00,024.8,023.4,000.0,033.4,026.4,025.5,0000.0,0005.27,0013.93,0004.25
2024-05-12 11:12:00,SystemResetWarning,0824.0,5.00,000.00,024.8,023.6,000.0,033.4,026.5,025.4,0000.0,0005.29,0013.66,0004.31
2024-05-12 11:13:00,SystemResetWarning,0824.0,5.02,000.00,024.9,023.8,000.0,033.4,026.6,025.4,0000.0,0005.37,0013.38,0004.35
2024-05-12 11:14:00,SystemResetWarning,0824.0,4.98,000.00,024.9,023.9,000.0,033.3,026.6,025.2,0000.0,0005.46,0013.89,0004.39
2024-05-12 11:15:00,SystemResetWarning,0824.0,4.99,000.00,024.9,024.1,000.0,033.3,026.7,024.8,0000.0,0005.53,0013.92,0004.41
2024-05-12 11:16:00,SystemResetWarning,0824.0,5.01,000.00,025.0,024.2,000.0,033.3,026.7,024.6,0000.0,0005.56,0014.00,0004.39
2024-05-12 11:17:00,SystemResetWarning,0824.0,5.01,000.00,025.0,024.3,000.0,033.3,026.7,024.6,0000.0,0005.57,0013.99,0004.38
2024-05-12 11:18:00,SystemResetWarning,0824.0,4.99,000.00,025.0,024.4,000.0,033.3,026.8,024.4,0000.0,0005.52,0013.56,0004.36
2024-05-12 11:19:00,SystemResetWarning,0824.0,5.00,000.00,025.1,024.4,000.0,033.3,026.8,024.4,0000.0,0005.54,0013.56,0004.34
2024-05-12 11:20:00,SystemResetWarning,0824.0,4.99,000.00,025.1,024.5,000.0,033.3,026.9,024.4,0000.0,0005.53,0013.08,0004.30
2024-05-12 11:21:00,SystemResetWarning,0824.0,4.99,000.00,025.1,024.6,000.0,033.3,026.9,024.3,0000.0,0005.50,0012.63,0004.25
2024-05-12 11:22:00,SystemResetWarning,0824.0,5.00,000.00,025.2,024.6,000.0,033.4,026.9,024.1,0000.0,0005.43,0012.23,0004.19
2024-05-12 11:23:00,SystemResetWarning,0824.0,5.00,000.00,025.2,024.7,000.0,033.4,027.0,024.2,0000.0,0005.35,0012.13,0004.12
2024-05-12 11:24:00,SystemResetWarning,0824.0,5.01,000.00,025.2,024.7,000.0,033.4,027.0,024.2,0000.0,0005.26,0012.11,0004.07
2024-05-12 11:25:00,SystemResetWarning,0824.0,4.99,000.00,025.3,024.7,000.0,033.4,027.0,024.0,0000.0,0005.19,0011.91,0004.01
2024-05-12 11:26:00,SystemResetWarning,0824.0,4.98,000.00,025.3,024.8,000.0,033.4,027.1,023.9,0000.0,0005.11,0012.53,0003.98
2024-05-12 11:27:00,SystemResetWarning,0824.0,5.00,000.00,025.3,024.8,000.0,033.5,027.1,023.6,0000.0,0005.07,0013.64,0003.95
2024-05-12 11:28:00,SystemResetWarning,0824.0,5.00,000.00,025.3,024.8,000.0,033.5,027.1,023.8,0000.0,0004.98,0014.56,0003.92
2024-05-12 11:29:00,SystemResetWarning,0824.0,5.00,000.00,025.4,024.9,000.0,033.5,027.1,023.9,0000.0,0004.94,0014.65,0003.91
2024-05-12 11:30:00,SystemResetWarning,0824.0,5.00,000.00,025.4,024.9,000.0,033.5,027.2,023.9,0000.0,0004.93,0015.29,0003.90
2024-05-12 11:31:00,SystemResetWarning,0824.0,5.00,000.00,025.4,024.9,000.0,033.5,027.2,023.8,0000.0,0004.90,0015.60,0003.90
2024-05-12 11:32:00,SystemResetWarning,0824.0,5.00,000.00,025.4,024.9,000.0,033.6,027.2,023.7,0000.0,0004.88,0015.96,0003.88
2024-05-12 11:33:00,SystemResetWarning,0824.0,5.01,000.00,025.5,025.0,000.0,033.6,027.2,023.5,0000.0,0004.84,0016.41,0003.87
2024-05-12 11:34:00,SystemResetWarning,0824.0,5.00,000.00,025.5,025.0,000.0,033.6,027.3,023.5,0000.0,0004.85,0016.75,0003.86
2024-05-12 11:35:00,SystemResetWarning,0824.0,5.00,000.00,025.5,025.0,000.0,033.6,027.3,023.5,0000.0,0004.79,0016.40,0003.83
2024-05-12 11:36:00,SystemResetWarning,0824.0,5.00,000.00,025.5,025.0,000.0,033.7,027.3,023.6,0000.0,0004.74,0016.17,0003.80
2024-05-12 11:37:00,SystemResetWarning,0824.0,4.99,000.00,025.5,025.0,000.0,033.7,027.3,023.6,0000.0,0004.74,0015.67,0003.80
2024-05-12 11:38:00,SystemResetWarning,0824.0,4.99,000.00,025.6,025.1,000.0,033.7,027.3,023.6,0000.0,0004.80,0014.50,0003.80
2024-05-12 11:39:00,SystemResetWarning,0824.0,5.00,000.00,025.6,025.1,000.0,033.7,027.3,023.7,0000.0,0004.83,0013.34,0003.82
2024-05-12 11:40:00,SystemResetWarning,0824.0,5.00,000.00,025.6,025.1,000.0,033.7,027.4,023.7,0000.0,0004.86,0013.17,0003.81
2024-05-12 11:41:00,SystemResetWarning,0824.0,5.00,000.00,025.6,025.1,000.0,033.8,027.4,023.3,0000.0,0004.88,0013.12,0003.80
2024-05-12 11:42:00,SystemResetWarning,0824.0,5.01,000.00,025.6,025.1,000.0,033.8,027.4,023.4,0000.0,0004.89,0013.37,0003.78
2024-05-12 11:43:00,SystemResetWarning,0824.0,5.01,000.00,025.7,025.1,000.0,033.8,027.4,023.5,0000.0,0004.87,0013.05,0003.76
2024-05-12 11:44:00,SystemResetWarning,0824.0,5.00,000.00,025.7,025.1,000.0,033.8,027.4,023.5,0000.0,0004.86,0013.31,0003.74
2024-05-12 11:45:00,SystemResetWarning,0824.0,5.00,000.00,025.7,025.2,000.0,033.8,027.4,023.1,0000.0,0004.81,0012.97,0003.74
2024-05-12 11:46:00,SystemResetWarning,0824.0,4.99,000.00,025.7,025.2,000.0,033.8,027.5,023.3,0000.0,0004.89,0014.83,0003.75
2024-05-12 11:47:00,SystemResetWarning,0824.0,5.00,000.00,025.7,025.2,000.0,033.9,027.5,023.9,0000.0,0004.92,0015.29,0003.77
2024-05-12 11:48:00,SystemResetWarning,0824.0,5.00,000.00,025.7,025.2,000.0,033.9,027.5,024.3,0000.0,0004.91,0014.87,0003.81
2024-05-12 11:49:00,SystemResetWarning,0824.0,5.01,000.00,025.8,025.2,000.0,033.9,027.5,023.7,0000.0,0004.89,0015.25,0003.86
2024-05-12 11:50:00,SystemResetWarning,0824.0,5.01,000.00,025.8,025.2,000.0,033.9,027.5,023.7,0000.0,0004.90,0015.59,0003.89
2024-05-12 11:51:00,SystemResetWarning,0824.0,5.00,000.00,025.8,025.3,000.0,033.9,027.5,023.6,0000.0,0004.89,0015.37,0003.93
2024-05-12 11:52:00,SystemResetWarning,0824.0,4.99,000.00,025.8,025.3,000.0,034.0,027.6,023.7,0000.0,0004.88,0014.63,0003.98
2024-05-12 11:53:00,SystemResetWarning,0824.1,5.00,000.00,025.8,025.3,000.0,034.0,027.6,023.6,0000.0,0004.87,0014.38,0004.03
2024-05-12 11:54:00,SystemResetWarning,0824.1,4.99,000.00,025.8,025.3,000.0,034.0,027.6,023.5,0000.0,0004.96,0014.96,0004.09
2024-05-12 11:55:00,SystemResetWarning,0824.1,5.00,000.00,025.9,025.3,000.0,034.0,027.6,023.8,0000.0,0004.96,0014.64,0004.13
2024-05-12 11:56:00,SystemResetWarning,0824.2,5.00,000.00,025.9,025.3,000.0,034.0,027.6,023.8,0000.0,0004.99,0014.67,0004.17
2024-05-12 11:57:00,SystemResetWarning,0824.1,5.01,000.00,025.9,025.4,000.0,034.1,027.6,023.8,0000.0,0004.95,0013.09,0004.20
2024-05-12 11:58:00,SystemResetWarning,0824.2,5.00,000.00,025.9,025.4,000.0,034.1,027.6,023.8,0000.0,0004.97,0012.76,0004.22
2024-05-12 11:59:00,SystemResetWarning,0824.2,5.00,000.00,025.9,025.4,000.0,034.1,027.7,023.6,0000.0,0005.06,0013.55,0004.23
